| time (UTC) | temp F | wind direction | speed MPH | gust MPH | rain 1hr in | rain 24hr in | rain mn in | humidity % | barometer mb |
| 20260906025625 | 74 | 60 | 6.0 | 10.0 | 0.00 | 0.00 | 0.00 | 24 | 1012.8 |
| 20260906024616 | 74 | 82 | 8.0 | 11.0 | 0.00 | 0.00 | 0.00 | 25 | 1012.8 |
| 20260906023633 | 74 | 57 | 8.0 | 11.0 | 0.00 | 0.00 | 0.00 | 26 | 1012.7 |
| 20260906022623 | 73 | 83 | 5.0 | 8.0 | 0.00 | 0.00 | 0.00 | 27 | 1012.7 |
| 20260906021614 | 74 | 74 | 3.0 | 5.0 | 0.00 | 0.00 | 0.00 | 27 | 1012.7 |
| 20260906020625 | 76 | 155 | 3.0 | 4.0 | 0.00 | 0.00 | 0.00 | 29 | 1012.7 |
| 20260906015652 | 78 | 236 | 0.0 | 2.0 | 0.00 | 0.00 | 0.00 | 28 | 1012.9 |
| 20260906014621 | 79 | 236 | 2.0 | 3.0 | 0.00 | 0.00 | 0.00 | 28 | 1013.0 |
| 20260906013613 | 81 | 236 | 2.0 | 3.0 | 0.00 | 0.00 | 0.00 | 26 | 1013.0 |
| 20260906012626 | 83 | 236 | 1.0 | 2.0 | 0.00 | 0.00 | 0.00 | 22 | 1013.1 |
| 20260906011620 | 84 | 236 | 1.0 | 2.0 | 0.00 | 0.00 | 0.00 | 21 | 1013.2 |
| 20260906010612 | 85 | 236 | 2.0 | 2.0 | 0.00 | 0.00 | 0.00 | 19 | 1013.2 |
| 20260906005613 | 84 | 236 | 2.0 | 3.0 | 0.00 | 0.00 | 0.00 | 18 | 1013.1 |
| 20260906004625 | 84 | 236 | 4.0 | 7.0 | 0.00 | 0.00 | 0.00 | 19 | 1013.2 |
| 20260906003620 | 85 | 257 | 4.0 | 10.0 | 0.00 | 0.00 | 0.00 | 19 | 1013.1 |
| 20260906002631 | 85 | 244 | 3.0 | 8.0 | 0.00 | 0.00 | 0.00 | 19 | 1013.0 |
| 20260906001621 | 85 | 220 | 3.0 | 7.0 | 0.00 | 0.00 | 0.00 | 19 | 1013.0 |
| 20260906000616 | 85 | 200 | 3.0 | 7.0 | 0.00 | 0.00 | 0.00 | 19 | 1013.0 |
| 20260905235622 | 85 | 196 | 4.0 | 7.0 | 0.00 | 0.00 | 0.00 | 18 | 1013.2 |
| 20260905234614 | 85 | 248 | 4.0 | 13.0 | 0.00 | 0.00 | 0.00 | 18 | 1013.2 |
| 20260905233625 | 86 | 254 | 7.0 | 11.0 | 0.00 | 0.00 | 0.00 | 18 | 1013.3 |
| 20260905232618 | 85 | 250 | 4.0 | 7.0 | 0.00 | 0.00 | 0.00 | 18 | 1013.3 |
| 20260905231615 | 85 | 235 | 6.0 | 12.0 | 0.00 | 0.00 | 0.00 | 19 | 1013.3 |
| 20260905230625 | 85 | 266 | 4.0 | 11.0 | 0.00 | 0.00 | 0.00 | 19 | 1013.3 |
| 20260905225627 | 85 | 236 | 6.0 | 9.0 | 0.00 | 0.00 | 0.00 | 18 | 1013.3 |
| 20260905224624 | 85 | 219 | 6.0 | 11.0 | 0.00 | 0.00 | 0.00 | 18 | 1013.5 |
| 20260905223614 | 85 | 234 | 6.0 | 14.0 | 0.00 | 0.00 | 0.00 | 19 | 1013.5 |
| 20260905222626 | 85 | 228 | 5.0 | 7.0 | 0.00 | 0.00 | 0.00 | 19 | 1013.7 |
| 20260905221618 | 85 | 275 | 5.0 | 12.0 | 0.00 | 0.00 | 0.00 | 18 | 1013.7 |
| 20260905220633 | 85 | 263 | 7.0 | 14.0 | 0.00 | 0.00 | 0.00 | 19 | 1013.7 |
| 20260905215614 | 84 | 205 | 6.0 | 14.0 | 0.00 | 0.00 | 0.00 | 19 | 1013.7 |
| 20260905214625 | 84 | 274 | 6.0 | 14.0 | 0.00 | 0.00 | 0.00 | 19 | 1013.9 |
| 20260905213637 | 84 | 209 | 8.0 | 12.0 | 0.00 | 0.00 | 0.00 | 18 | 1014.1 |
| 20260905212648 | 84 | 263 | 8.0 | 11.0 | 0.00 | 0.00 | 0.00 | 19 | 1014.1 |
| 20260905211621 | 84 | 234 | 8.0 | 12.0 | 0.00 | 0.00 | 0.00 | 18 | 1014.3 |
| 20260905210613 | 84 | 252 | 7.0 | 13.0 | 0.00 | 0.00 | 0.00 | 18 | 1014.4 |
| 20260905205615 | 84 | 191 | 2.0 | 10.0 | 0.00 | 0.00 | 0.00 | 19 | 1014.5 |
| 20260905204648 | 84 | 227 | 1.0 | 9.0 | 0.00 | 0.00 | 0.00 | 19 | 1014.5 |
| 20260905203623 | 83 | 261 | 4.0 | 10.0 | 0.00 | 0.00 | 0.00 | 18 | 1014.6 |
| 20260905202614 | 83 | 207 | 7.0 | 13.0 | 0.00 | 0.00 | 0.00 | 20 | 1014.7 |
| 20260905201625 | 83 | 264 | 7.0 | 13.0 | 0.00 | 0.00 | 0.00 | 19 | 1014.8 |
| 20260905200620 | 82 | 264 | 9.0 | 14.0 | 0.00 | 0.00 | 0.00 | 19 | 1014.9 |
| 20260905195622 | 82 | 273 | 6.0 | 13.0 | 0.00 | 0.00 | 0.00 | 19 | 1015.0 |
| 20260905194613 | 82 | 214 | 6.0 | 11.0 | 0.00 | 0.00 | 0.00 | 19 | 1015.1 |
| 20260905193624 | 82 | 236 | 7.0 | 11.0 | 0.00 | 0.00 | 0.00 | 20 | 1015.2 |
| 20260905192620 | 81 | 242 | 6.0 | 11.0 | 0.00 | 0.00 | 0.00 | 20 | 1015.3 |
| 20260905191629 | 81 | 234 | 8.0 | 15.0 | 0.00 | 0.00 | 0.00 | 19 | 1015.4 |
| 20260905190621 | 81 | 265 | 7.0 | 14.0 | 0.00 | 0.00 | 0.00 | 19 | 1015.5 |
| 20260905185623 | 81 | 235 | 8.0 | 16.0 | 0.00 | 0.00 | 0.00 | 20 | 1015.6 |
| 20260905184619 | 81 | 246 | 9.0 | 16.0 | 0.00 | 0.00 | 0.00 | 20 | 1015.6 |
| 20260905183631 | 81 | 236 | 7.0 | 13.0 | 0.00 | 0.00 | 0.00 | 20 | 1015.9 |
| 20260905182622 | 80 | 256 | 12.0 | 17.0 | 0.00 | 0.00 | 0.00 | 19 | 1015.9 |
| 20260905181613 | 80 | 235 | 10.0 | 14.0 | 0.00 | 0.00 | 0.00 | 19 | 1016.0 |
| 20260905180648 | 80 | 225 | 9.0 | 13.0 | 0.00 | 0.00 | 0.00 | 20 | 1016.1 |
| 20260905175614 | 80 | 243 | 6.0 | 11.0 | 0.00 | 0.00 | 0.00 | 21 | 1016.2 |
| 20260905174626 | 79 | 228 | 6.0 | 10.0 | 0.00 | 0.00 | 0.00 | 24 | 1016.3 |
| 20260905173637 | 78 | 227 | 4.0 | 11.0 | 0.00 | 0.00 | 0.00 | 27 | 1016.3 |
| 20260905172628 | 78 | 227 | 5.0 | 12.0 | 0.00 | 0.00 | 0.00 | 26 | 1016.2 |
| 20260905171624 | 78 | 239 | 6.0 | 10.0 | 0.00 | 0.00 | 0.00 | 28 | 1016.2 |
| 20260905170615 | 77 | 249 | 5.0 | 9.0 | 0.00 | 0.00 | 0.00 | 29 | 1016.2 |
| 20260905165617 | 76 | 243 | 5.0 | 10.0 | 0.00 | 0.00 | 0.00 | 29 | 1016.1 |
| 20260905164626 | 75 | 212 | 4.0 | 6.0 | 0.00 | 0.00 | 0.00 | 34 | 1016.0 |
| 20260905163622 | 74 | 293 | 2.0 | 5.0 | 0.00 | 0.00 | 0.00 | 40 | 1016.0 |
| 20260905162614 | 73 | 300 | 1.0 | 3.0 | 0.00 | 0.00 | 0.00 | 43 | 1016.0 |
| 20260905161626 | 72 | 300 | 1.0 | 3.0 | 0.00 | 0.00 | 0.00 | 46 | 1015.9 |
| 20260905160617 | 70 | 294 | 2.0 | 4.0 | 0.00 | 0.00 | 0.00 | 46 | 1015.9 |
| 20260905155644 | 70 | 297 | 2.0 | 3.0 | 0.00 | 0.00 | 0.00 | 47 | 1015.9 |
| 20260905154613 | 69 | 295 | 1.0 | 6.0 | 0.00 | 0.00 | 0.00 | 46 | 1015.8 |
| 20260905153624 | 68 | 289 | 2.0 | 5.0 | 0.00 | 0.00 | 0.00 | 46 | 1015.8 |
| 20260905152614 | 67 | 325 | 1.0 | 4.0 | 0.00 | 0.00 | 0.00 | 47 | 1015.7 |
| 20260905151630 | 66 | 324 | 2.0 | 4.0 | 0.00 | 0.00 | 0.00 | 49 | 1015.7 |
| 20260905150620 | 65 | 327 | 2.0 | 4.0 | 0.00 | 0.00 | 0.00 | 50 | 1015.7 |
| 20260905145621 | 63 | 329 | 2.0 | 5.0 | 0.00 | 0.00 | 0.00 | 47 | 1015.7 |
| 20260905144631 | 62 | 5 | 2.0 | 4.0 | 0.00 | 0.00 | 0.00 | 49 | 1015.6 |
| 20260905143625 | 60 | 5 | 2.0 | 4.0 | 0.00 | 0.00 | 0.00 | 50 | 1015.6 |
| 20260905142636 | 59 | 355 | 2.0 | 5.0 | 0.00 | 0.00 | 0.00 | 54 | 1015.5 |
| 20260905141645 | 57 | 13 | 3.0 | 4.0 | 0.00 | 0.00 | 0.00 | 55 | 1015.4 |
| 20260905140615 | 56 | 22 | 0.0 | 5.0 | 0.00 | 0.00 | 0.00 | 56 | 1015.4 |
| 20260905135615 | 56 | 5 | 3.0 | 5.0 | 0.00 | 0.00 | 0.00 | 54 | 1015.2 |
| 20260905134629 | 57 | 330 | 2.0 | 5.0 | 0.00 | 0.00 | 0.00 | 54 | 1015.0 |
| 20260905133618 | 56 | 56 | 1.0 | 3.0 | 0.00 | 0.00 | 0.00 | 52 | 1014.8 |
| 20260905132628 | 56 | 56 | 1.0 | 4.0 | 0.00 | 0.00 | 0.00 | 52 | 1014.7 |
| 20260905131638 | 56 | 56 | 3.0 | 3.0 | 0.00 | 0.00 | 0.00 | 53 | 1014.6 |
| 20260905130611 | 56 | 56 | 3.0 | 5.0 | 0.00 | 0.00 | 0.00 | 53 | 1014.5 |
| 20260905125652 | 56 | 350 | 3.0 | 4.0 | 0.00 | 0.00 | 0.00 | 54 | 1014.2 |
| 20260905124644 | 56 | 259 | 0.0 | 1.0 | 0.00 | 0.00 | 0.00 | 54 | 1014.3 |
| 20260905123615 | 57 | 259 | 0.0 | 1.0 | 0.00 | 0.00 | 0.00 | 54 | 1014.1 |
| 20260905122627 | 57 | 259 | 1.0 | 3.0 | 0.00 | 0.00 | 0.00 | 52 | 1013.9 |
| 20260905121642 | 58 | 261 | 0.0 | 3.0 | 0.00 | 0.00 | 0.00 | 53 | 1013.8 |
| 20260905120615 | 58 | 260 | 1.0 | 2.0 | 0.00 | 0.00 | 0.00 | 51 | 1013.7 |
| 20260905115615 | 58 | 261 | 1.0 | 6.0 | 0.00 | 0.00 | 0.00 | 52 | 1013.7 |
| 20260905114626 | 58 | 71 | 2.0 | 3.0 | 0.00 | 0.00 | 0.00 | 51 | 1013.6 |
| 20260905113620 | 58 | 71 | 0.0 | 4.0 | 0.00 | 0.00 | 0.00 | 51 | 1013.6 |
| 20260905112629 | 59 | 64 | 0.0 | 5.0 | 0.00 | 0.00 | 0.00 | 49 | 1013.7 |
| 20260905111622 | 61 | 65 | 5.0 | 5.0 | 0.00 | 0.00 | 0.00 | 47 | 1013.4 |
| 20260905110615 | 61 | 65 | 2.0 | 3.0 | 0.00 | 0.00 | 0.00 | 46 | 1013.4 |
| 20260905105622 | 62 | 66 | 1.0 | 3.0 | 0.00 | 0.00 | 0.00 | 45 | 1013.3 |
| 20260905104631 | 62 | 66 | 2.0 | 4.0 | 0.00 | 0.00 | 0.00 | 46 | 1013.3 |
| 20260905103625 | 61 | 66 | 1.0 | 4.0 | 0.00 | 0.00 | 0.00 | 46 | 1013.3 |
| 20260905102616 | 62 | 65 | 1.0 | 4.0 | 0.00 | 0.00 | 0.00 | 45 | 1013.2 |
| 20260905101627 | 62 | 66 | 1.0 | 4.0 | 0.00 | 0.00 | 0.00 | 45 | 1013.1 |
| 20260905100618 | 62 | 5 | 1.0 | 4.0 | 0.00 | 0.00 | 0.00 | 44 | 1012.9 |
| 20260905095623 | 62 | 355 | 2.0 | 7.0 | 0.00 | 0.00 | 0.00 | 45 | 1012.8 |
| 20260905094615 | 61 | 62 | 2.0 | 6.0 | 0.00 | 0.00 | 0.00 | 46 | 1012.5 |
| 20260905093626 | 62 | 70 | 1.0 | 4.0 | 0.00 | 0.00 | 0.00 | 46 | 1012.5 |
| 20260905092618 | 62 | 70 | 0.0 | 3.0 | 0.00 | 0.00 | 0.00 | 45 | 1012.3 |
| 20260905091612 | 62 | 70 | 1.0 | 5.0 | 0.00 | 0.00 | 0.00 | 46 | 1012.1 |
| 20260905090624 | 62 | 70 | 2.0 | 5.0 | 0.00 | 0.00 | 0.00 | 45 | 1011.9 |
| 20260905085645 | 62 | 74 | 2.0 | 5.0 | 0.00 | 0.00 | 0.00 | 45 | 1011.9 |
| 20260905084615 | 64 | 11 | 1.0 | 13.0 | 0.00 | 0.00 | 0.00 | 43 | 1011.9 |
| 20260905083630 | 67 | 294 | 3.0 | 6.0 | 0.00 | 0.00 | 0.00 | 38 | 1011.8 |
| 20260905082622 | 66 | 101 | 1.0 | 2.0 | 0.00 | 0.00 | 0.00 | 40 | 1011.7 |
| 20260905081614 | 66 | 71 | 2.0 | 5.0 | 0.00 | 0.00 | 0.00 | 39 | 1011.7 |
| 20260905080628 | 68 | 279 | 1.0 | 7.0 | 0.00 | 0.00 | 0.00 | 38 | 1011.7 |
| 20260905075651 | 68 | 259 | 3.0 | 6.0 | 0.00 | 0.00 | 0.00 | 37 | 1011.7 |
| 20260905074621 | 68 | 309 | 0.0 | 4.0 | 0.00 | 0.00 | 0.00 | 37 | 1011.6 |
| 20260905073631 | 69 | 242 | 4.0 | 8.0 | 0.00 | 0.00 | 0.00 | 37 | 1011.5 |
| 20260905072621 | 69 | 196 | 2.0 | 5.0 | 0.00 | 0.00 | 0.00 | 34 | 1011.2 |
| 20260905071617 | 68 | 244 | 3.0 | 5.0 | 0.00 | 0.00 | 0.00 | 36 | 1011.3 |
| 20260905070649 | 66 | 242 | 1.0 | 4.0 | 0.00 | 0.00 | 0.00 | 40 | 1011.1 |
| 20260905065628 | 64 | 149 | 0.0 | 4.0 | 0.00 | 0.00 | 0.00 | 42 | 1011.0 |
| 20260905064639 | 63 | 44 | 1.0 | 2.0 | 0.00 | 0.00 | 0.00 | 44 | 1010.9 |
| 20260905063614 | 63 | 44 | 0.0 | 3.0 | 0.00 | 0.00 | 0.00 | 44 | 1010.8 |
| 20260905062623 | 63 | 44 | 3.0 | 3.0 | 0.00 | 0.00 | 0.00 | 43 | 1010.7 |
| 20260905061635 | 64 | 43 | 1.0 | 5.0 | 0.00 | 0.00 | 0.00 | 43 | 1010.7 |
| 20260905060613 | 64 | 355 | 2.0 | 4.0 | 0.00 | 0.00 | 0.00 | 42 | 1010.6 |
| 20260905055615 | 64 | 34 | 0.0 | 2.0 | 0.00 | 0.00 | 0.00 | 43 | 1010.5 |
| 20260905054650 | 64 | 34 | 2.0 | 3.0 | 0.00 | 0.00 | 0.00 | 42 | 1010.4 |
| 20260905053640 | 65 | 34 | 0.0 | 3.0 | 0.00 | 0.00 | 0.00 | 41 | 1010.3 |
| 20260905052629 | 65 | 34 | 2.0 | 3.0 | 0.00 | 0.00 | 0.00 | 40 | 1010.2 |
| 20260905051619 | 66 | 34 | 0.0 | 4.0 | 0.00 | 0.00 | 0.00 | 39 | 1010.3 |
| 20260905050613 | 67 | 29 | 0.0 | 3.0 | 0.00 | 0.00 | 0.00 | 38 | 1010.3 |
| 20260905045615 | 68 | 29 | 1.0 | 3.0 | 0.00 | 0.00 | 0.00 | 37 | 1010.3 |
| 20260905044624 | 68 | 29 | 2.0 | 4.0 | 0.00 | 0.00 | 0.00 | 35 | 1010.3 |
| 20260905043615 | 70 | 11 | 2.0 | 5.0 | 0.00 | 0.00 | 0.00 | 34 | 1010.2 |
| 20260905042627 | 73 | 14 | 2.0 | 5.0 | 0.00 | 0.00 | 0.00 | 32 | 1010.1 |
| 20260905041622 | 76 | 327 | 2.0 | 4.0 | 0.00 | 0.00 | 0.00 | 29 | 1010.0 |
| 20260905040612 | 78 | 163 | 2.0 | 6.0 | 0.00 | 0.00 | 0.00 | 25 | 1009.9 |
| 20260905035651 | 78 | 184 | 2.0 | 8.0 | 0.00 | 0.00 | 0.00 | 24 | 1009.8 |
| 20260905034642 | 77 | 130 | 5.0 | 12.0 | 0.00 | 0.00 | 0.00 | 24 | 1009.8 |
| 20260905033618 | 76 | 171 | 4.0 | 8.0 | 0.00 | 0.00 | 0.00 | 25 | 1009.8 |
| 20260905032627 | 74 | 143 | 2.0 | 5.0 | 0.00 | 0.00 | 0.00 | 27 | 1009.8 |
| 20260905031619 | 74 | 132 | 0.0 | 3.0 | 0.00 | 0.00 | 0.00 | 27 | 1009.9 |
| 20260905030631 | 74 | 131 | 1.0 | 3.0 | 0.00 | 0.00 | 0.00 | 27 | 1009.9 |